Dewpoint
25 22 20 16 14 14 13 11 10 9 9 9 9 9 9 10 10 12 12 14 13 17 20 21 22 22 23 22 24 24 24 24 22 23 24 28 27 26 26 27 28 28 28
22 19 18 17 16 14 11 10 9 8 9 9 9 10 10 10 11 11 12 12 13 16 19 20 21 18 22 23 23 23 24 24 24 25 26 26 25 26 27 27 25 25 26
19 18 17 16 15 12 10 10 9 10 10 10 11 12 11 12 12 11 11 11 15 18 19 20 21 22 21 22 22 23 24 24 27 27 25 25 26 28 27 24 21 23 24
18 17 16 15 13 13 12 12 11 11 12 13 13 13 13 11 12 12 12 17 19 19 21 22 22 21 20 21 22 24 26 28 28 27 25 26 27 27 25 22 21 25 26
15 15 15 15 13 12 13 13 12 13 13 14 14 13 13 14 9 16 19 20 21 21 21 20 20 25 27 25 21 25 27 29 25 26 28 28 30 24 22 22 23 24 24
13 12 13 12 12 14 13 13 13 14 14 15 14 13 13 11 21 24 23 22 22 21 21 20 19 25 23 26 28 29 28 25 24 27 29 29 23 21 21 23 24 25 24
12 10 9 10 11 12 12 12 13 14 14 14 13 13 12 13 22 24 26 22 22 21 19 19 18 17 23 24 28 29 28 29 31 27 25 24 21 20 24 26 28 27 23
11 9 9 10 9 10 10 10 13 12 13 12 12 13 14 11 21 23 25 22 21 21 19 19 19 21 24 25 23 28 30 29 25 21 22 21 22 26 29 26 24 26 28
9 8 8 8 9 9 10 11 12 12 13 12 13 13 12 11 21 23 24 21 21 20 20 20 22 22 26 28 27 30 23 20 23 26 27 27 26 27 26 24 26 25 24
8 8 8 9 9 9 10 11 13 13 13 13 12 11 15 11 21 24 24 21 21 21 22 24 27 23 27 30 26 20 21 19 25 23 21 21 23 23 26 25 26 25 24
9 9 9 9 9 10 12 12 13 12 13 11 10 9 11 15 17 24 25 21 21 22 26 23 22 26 29 29 25 19 20 25 23 20 19 21 22 23 24 25 26 26 24
10 10 10 10 10 10 12 12 11 11 11 9 9 12 15 15 22 23 25 25 25 23 23 22 22 32 26 23 22 23 24 23 19 20 22 22 22 23 24 25 25 26 27
9 9 9 11 11 11 11 11 11 10 9 8 11 15 17 18 18 24 25 26 27 22 21 24 32 24 22 20 22 23 22 19 20 22 23 22 23 24 24 25 26 27 27
8 8 11 11 12 11 13 11 9 9 11 13 16 18 20 20 20 20 20 23 25 24 28 30 21 20 21 20 19 19 18 19 20 22 23 23 23 23 24 25 26 26 26
9 10 11 12 11 12 11 9 9 11 17 18 20 20 20 19 19 23 23 20 23 26 24 19 16 15 16 17 17 17 18 19 23 22 22 22 22 23 23 25 25 27 26
11 12 12 13 11 11 9 9 17 20 21 21 22 21 19 23 25 25 24 25 27 25 18 15 16 17 17 16 16 17 19 21 21 22 22 22 22 22 22 25 27 27 25
12 12 12 13 10 9 11 12 13 16 20 20 21 22 22 22 23 23 24 26 24 21 16 17 18 17 17 17 18 20 21 21 22 22 22 22 22 23 23 25 24 25 24
13 18 14 11 13 12 12 14 14 13 13 13 18 19 21 21 21 23 24 21 16 17 18 18 18 18 18 18 21 21 21 21 21 21 22 21 22 23 23 23 22 22 22
14 14 13 15 16 16 15 14 14 13 13 13 14 16 17 20 22 23 21 16 17 17 18 18 18 18 19 21 22 22 21 21 22 21 21 22 23 24 24 24 23 25 26
15 17 17 15 14 14 14 14 13 13 14 14 14 14 13 18 21 17 17 17 17 18 18 18 18 19 22 22 22 21 21 20 20 21 22 23 24 25 24 24 23 23 24
14 14 17 14 14 15 15 14 14 15 15 14 13 14 21 18 17 16 16 17 18 18 18 19 19 21 22 22 21 21 20 20 21 22 23 24 25 23 25 25 24 25 26
14 14 15 16 16 15 14 15 14 14 14 14 14 14 19 15 16 17 17 18 18 19 19 19 20 22 22 22 22 21 21 21 22 23 24 25 23 23 26 25 26 25 26
15 16 16 15 14 15 12 13 13 13 13 14 14 13 13 14 15 17 17 17 19 19 19 19 21 21 21 22 23 23 22 23 25 27 25 24 23 24 26 26 26 25 25
18 16 15 13 11 11 11 10 12 13 13 13 14 14 15 15 15 15 17 19 19 19 19 19 21 21 22 22 23 23 25 26 29 29 28 26 25 26 27 26 27 26 25
17 15 12 10 9 9 10 11 13 14 15 15 15 16 16 16 16 18 18 19 19 18 18 19 20 22 22 21 22 24 26 31 31 31 30 28 28 28 29 28 28 26 24
14 11 9 9 10 10 13 15 17 17 18 18 18 18 17 17 17 19 19 18 18 17 18 18 19 20 21 22 24 27 30 33 33 32 31 30 29 29 29 29 29 29 28
Lifted_Index
9 10 10 10 11 12 13 15 17 19 21 21 22 21 21 21 21 21 21 21 21 21 20 20 20 20 20 19 19 18 17 15 14 14 14 14 13 13 12 12 11 10 10
10 10 10 11 11 12 14 16 18 20 21 22 21 21 21 20 20 21 21 21 21 21 20 20 20 20 19 19 18 17 16 14 14 14 14 13 13 12 12 11 11 11 10
10 10 10 11 12 13 15 17 19 21 21 21 21 20 20 20 20 21 21 21 21 21 20 20 19 19 18 17 16 15 14 13 13 13 13 12 12 11 11 11 12 11 11
10 10 11 11 13 14 16 19 20 21 21 21 20 20 20 20 21 21 21 21 21 20 20 19 18 17 16 15 14 13 13 13 13 12 12 12 11 11 11 11 12 12 11
10 10 11 12 14 16 18 20 21 21 21 20 20 20 20 20 21 21 21 21 21 20 19 18 17 16 14 14 13 13 13 13 12 12 11 11 11 11 11 12 12 12 12
10 11 12 13 15 17 19 21 21 21 20 19 19 20 20 20 21 21 21 21 20 19 18 17 15 14 13 13 13 13 13 12 12 12 11 12 12 12 12 12 12 12 12
11 11 12 14 16 18 20 21 20 20 19 19 20 20 20 21 21 21 20 20 19 17 16 15 14 13 13 13 13 13 12 12 11 11 12 12 12 12 12 12 12 12 11
11 12 13 15 17 19 20 20 20 19 19 19 20 20 21 21 21 20 19 18 17 16 14 14 13 13 13 13 13 12 12 12 12 12 12 12 12 12 12 12 12 11 11
11 12 14 16 18 19 20 19 19 19 19 20 20 21 21 21 20 19 18 17 15 14 13 13 13 13 13 13 12 12 13 13 12 12 12 12 12 12 12 12 12 11 10
12 13 16 18 19 19 19 19 19 19 20 20 21 21 21 20 18 17 16 15 14 13 13 13 13 13 13 12 12 13 14 13 13 13 13 13 13 13 12 12 12 11 11
14 15 18 19 20 19 19 19 19 20 20 20 20 20 20 18 16 15 14 13 13 13 13 13 13 13 13 13 13 14 14 14 14 14 14 14 14 13 13 13 13 13 12
16 17 19 19 19 19 18 19 19 20 20 20 20 19 18 16 15 14 13 13 13 13 13 13 13 13 13 14 14 15 14 14 15 15 14 14 14 14 14 14 14 14 14
18 19 19 19 18 18 18 19 19 20 20 19 19 18 16 15 14 13 13 13 13 13 14 14 13 14 15 15 15 15 15 16 15 15 15 15 15 15 15 15 15 15 15
19 19 18 18 18 18 19 19 19 20 19 18 17 16 15 14 14 13 14 14 14 14 14 14 14 15 16 16 16 16 16 16 16 16 15 16 16 16 16 16 15 15 15
18 18 18 18 18 19 19 19 20 20 19 17 16 15 14 14 14 14 14 14 14 14 14 14 15 16 16 16 16 16 16 16 16 16 16 16 16 16 16 16 16 15 15
18 17 17 18 18 19 19 19 19 19 17 16 15 14 14 14 14 14 14 14 14 14 15 15 16 16 16 16 16 16 15 15 15 15 16 16 16 16 16 16 16 15 15
18 18 18 18 19 19 19 18 18 17 16 15 14 14 14 14 14 14 14 14 14 15 16 16 17 17 17 16 16 15 15 15 15 15 15 16 16 16 16 16 15 15 15
18 18 18 18 19 19 18 18 17 16 15 14 14 14 14 14 14 14 14 15 15 16 16 17 17 17 17 16 16 16 15 15 15 15 15 15 15 16 15 15 15 15 15
18 18 18 19 19 19 18 17 16 15 14 14 14 15 15 14 14 14 15 16 16 17 17 17 17 17 17 16 16 16 15 15 15 15 15 15 15 14 14 14 14 13 13
18 18 18 18 18 18 18 16 15 15 14 14 15 15 15 14 14 15 16 16 17 17 17 18 17 17 16 16 16 15 15 14 14 14 14 14 13 13 13 13 13 12 12
18 18 18 18 18 18 17 16 15 15 15 15 15 15 15 14 15 15 16 17 17 18 18 18 17 17 16 16 15 15 14 14 14 14 13 13 13 13 13 12 12 12 12
18 18 18 18 18 17 16 15 15 15 15 14 15 15 15 15 15 16 16 17 17 18 18 18 17 16 16 16 15 15 14 14 14 13 13 12 12 12 12 12 12 12 11
18 18 18 18 17 16 15 15 15 15 15 14 15 15 15 15 16 16 17 17 18 18 18 17 17 16 16 15 15 15 15 14 13 13 12 12 12 12 11 11 11 10 10
19 18 18 17 16 15 15 15 15 14 14 15 15 15 15 15 16 16 17 18 18 18 18 17 16 16 15 15 15 15 14 13 13 12 12 11 11 11 10 10 9 9 9
18 18 17 16 15 15 14 14 14 14 14 14 15 15 15 16 16 17 18 18 18 18 17 17 16 16 16 15 15 14 13 13 12 12 11 11 11 10 10 9 9 8 8
18 18 16 15 15 14 14 14 14 14 14 14 15 15 15 16 17 17 18 18 18 18 17 17 16 16 16 15 14 13 12 12 11 11 11 11 11 10 10 9 9 8 8